Waarnemingen

Advertentie
Mijn weer
UFS TW Ems, Duitsland (10004): temperatuur & dauwpunt: 19.09.2017 06:00:00 - 25.09.2017 06:00:00 (CEST)UFS TW Ems, Duitsland (10004): windsnelheid & windstoten: 19.09.2017 06:00:00 - 25.09.2017 06:00:00 (CEST)UFS TW Ems, Duitsland (10004): luchtdruk: 19.09.2017 06:00:00 - 25.09.2017 06:00:00 (CEST)UFS TW Ems, Duitsland (10004): zicht: 19.09.2017 06:00:00 - 25.09.2017 06:00:00 (CEST)UFS TW Ems, Duitsland (10004): Zonneschijnduur: 19.09.2017 06:00:00 - 25.09.2017 06:00:00 (CEST)
Datum & Tijd tt [°C] td [°C] ff [km/u] ff [kn] fx [km/u] fx [kn] ppp [hPa] vv [km] sd [min]
25.09.2017 06:00:00 15,7 14,1 22 12 - - 1023,7 9 0
25.09.2017 05:00:00 16,0 14,4 22 12 - - 1023,8 10 0
25.09.2017 04:00:00 16,1 14,3 22 12 - - - 10 0
25.09.2017 03:00:00 16,3 15,0 18 10 29 16 1024,2 10 0
25.09.2017 02:00:00 16,3 14,9 22 12 - - 1024,2 9 0
25.09.2017 01:00:00 16,3 14,5 29 16 - - 1024,5 10 0
25.09.2017 00:00:00 16,4 14,7 29 16 - - 1024,9 10 0
24.09.2017 23:00:00 16,6 15,0 29 16 - - 1024,9 10 0
24.09.2017 22:00:00 16,5 14,9 18 10 - - 1024,9 10 0
24.09.2017 21:00:00 16,3 14,4 22 12 - - 1024,8 10 0
24.09.2017 20:00:00 16,0 13,5 22 12 - - 1024,7 10 18
24.09.2017 19:00:00 16,0 12,8 18 10 - - 1024,7 10 60
24.09.2017 18:00:00 16,0 12,6 18 10 - - 1024,6 10 60
24.09.2017 17:00:00 16,1 12,3 14 8 - - 1024,7 10 60
24.09.2017 16:00:00 16,3 12,0 14 8 - - 1024,9 10 48
24.09.2017 15:00:00 16,0 11,2 11 6 - - 1025,1 10 54
24.09.2017 14:00:00 15,8 11,7 14 8 - - 1024,9 2,6 60
24.09.2017 13:00:00 15,9 11,6 14 8 - - 1024,6 0,9 60
24.09.2017 12:00:00 16,0 12,1 14 8 - - 1024,7 10 60
24.09.2017 11:00:00 16,1 11,8 7 4 - - 1024,7 10 60
24.09.2017 10:00:00 16,3 12,1 7 4 - - 1024,4 9 60
24.09.2017 09:00:00 15,9 12,1 7 4 - - 1024,3 10 12
24.09.2017 08:00:00 15,8 12,4 14 8 - - 1024,1 10 0
24.09.2017 07:00:00 15,5 12,4 7 4 - - 1023,9 10 0
24.09.2017 06:00:00 15,6 12,0 7 4 - - 1023,7 10 0
24.09.2017 05:00:00 15,5 11,4 7 4 - - 1023,8 10 0
24.09.2017 04:00:00 15,4 11,4 11 6 - - 1023,9 10 0
24.09.2017 03:00:00 15,3 11,2 7 4 - - - - 0
24.09.2017 02:00:00 15,2 10,6 7 4 - - 1024,3 10 0
24.09.2017 01:00:00 15,1 9,9 4 2 - - 1024,4 10 0
24.09.2017 00:00:00 15,0 9,5 4 2 - - 1024,4 10 0
23.09.2017 23:00:00 15,1 9,7 4 2 - - 1024,4 10 0
23.09.2017 22:00:00 15,1 9,6 4 2 - - 1024,6 10 0
23.09.2017 21:00:00 15,1 9,9 7 4 - - 1024,6 10 0
23.09.2017 20:00:00 15,3 9,8 7 4 - - 1024,5 10 30
23.09.2017 19:00:00 15,9 10,5 7 4 - - 1024,4 10 60
23.09.2017 18:00:00 16,7 10,3 7 4 - - 1024,3 10 60
23.09.2017 17:00:00 16,3 10,0 7 4 - - 1024,1 10 60
23.09.2017 16:00:00 15,4 10,5 11 6 - - 1024,4 10 60
23.09.2017 15:00:00 15,4 10,2 11 6 - - 1024,8 9 36
23.09.2017 14:00:00 15,3 10,3 11 6 - - 1024,7 5 54
23.09.2017 13:00:00 15,3 9,3 4 2 - - 1024,6 10 60
23.09.2017 12:00:00 15,2 9,4 7 4 - - 1024,7 10 60
23.09.2017 11:00:00 15,4 9,5 7 4 - - 1024,6 10 54
23.09.2017 10:00:00 15,2 9,6 7 4 - - 1024,2 10 18
23.09.2017 09:00:00 15,3 10,1 11 6 - - 1023,8 10 18
23.09.2017 08:00:00 - - - - - - - - -
23.09.2017 07:00:00 15,2 10,8 11 6 - - 1023,1 10 0
23.09.2017 06:00:00 15,2 11,3 18 10 - - 1022,9 10 0
23.09.2017 05:00:00 15,3 11,3 18 10 - - 1022,8 10 0
23.09.2017 04:00:00 - - - - - - - - -
23.09.2017 03:00:00 15,3 11,8 18 10 - - 1022,4 10 0
23.09.2017 02:00:00 - - - - - - - - -
23.09.2017 01:00:00 15,5 12,2 25 14 - - 1021,7 10 0
23.09.2017 00:00:00 - - - - - - - - -
22.09.2017 23:00:00 15,6 12,7 18 10 - - 1021,6 9 0
22.09.2017 22:00:00 15,6 12,8 14 8 - - 1021,3 10 0
22.09.2017 21:00:00 14,2 13,2 4 2 - - 1021,3 10 0
22.09.2017 20:00:00 13,7 12,6 25 14 - - 1021,1 6 0
22.09.2017 19:00:00 15,1 13,9 25 14 - - 1020,4 10 0
22.09.2017 18:00:00 15,8 13,7 18 10 - - 1020,1 10 0
22.09.2017 17:00:00 16,0 12,5 11 6 - - 1020,1 10 18
22.09.2017 16:00:00 15,9 12,2 14 8 - - 1020,1 9 12
22.09.2017 15:00:00 16,1 12,3 14 8 - - 1020,0 10 60
22.09.2017 14:00:00 - - - - - - - - -
22.09.2017 13:00:00 16,4 11,4 18 10 - - 1019,7 5 54
22.09.2017 12:00:00 16,1 12,2 18 10 - - 1019,8 5 60
22.09.2017 11:00:00 16,0 12,0 18 10 - - 1019,8 9 36
22.09.2017 10:00:00 - - - - - - - - -
22.09.2017 09:00:00 - - - - - - - - -
22.09.2017 08:00:00 16,1 12,3 14 8 - - 1019,4 10 0
22.09.2017 07:00:00 16,1 12,2 14 8 - - 1019,3 10 0
22.09.2017 06:00:00 16,1 12,7 18 10 - - 1019,1 9 0
22.09.2017 05:00:00 16,0 12,9 18 10 - - 1019,2 10 0
22.09.2017 04:00:00 16,4 12,5 18 10 - - 1019,2 10 0
22.09.2017 03:00:00 - - - - - - - - -
22.09.2017 02:00:00 - - - - - - - - -
22.09.2017 01:00:00 16,7 12,3 18 10 - - 1019,7 10 0
22.09.2017 00:00:00 16,8 12,9 18 10 22 12 1019,8 10 0
21.09.2017 23:00:00 16,9 12,6 18 10 - - 1019,8 10 0
21.09.2017 22:00:00 16,8 12,6 18 10 - - 1019,7 10 0
21.09.2017 21:00:00 - - - - - - - - -
21.09.2017 20:00:00 - - - - - - - - -
21.09.2017 19:00:00 - - - - - - - - -
21.09.2017 18:00:00 17,0 11,6 22 12 - - 1019,1 10 60
21.09.2017 17:00:00 17,0 11,7 25 14 - - 1018,9 10 30
21.09.2017 16:00:00 16,6 11,8 25 14 - - 1018,8 10 54
21.09.2017 15:00:00 - - - - - - - - -
21.09.2017 14:00:00 16,3 11,9 29 16 - - 1018,9 10 60
21.09.2017 13:00:00 16,2 12,7 29 16 - - 1019,0 3,4 60
21.09.2017 12:00:00 - - - - - - - - -
21.09.2017 11:00:00 15,8 13,2 29 16 - - 1018,9 8 36
21.09.2017 10:00:00 - - - - - - - - -
21.09.2017 09:00:00 - - - - - - - - -
21.09.2017 08:00:00 - - - - - - - - -
21.09.2017 07:00:00 15,9 14,2 29 16 - - 1017,8 10 0
21.09.2017 06:00:00 - - - - - - - - -
21.09.2017 05:00:00 - - - - - - - - -
21.09.2017 04:00:00 - - - - - - - - -
21.09.2017 03:00:00 15,8 13,5 32 18 - - 1017,5 10 0
21.09.2017 02:00:00 16,2 13,8 29 16 - - 1017,5 10 0
21.09.2017 01:00:00 16,2 13,2 25 14 - - 1017,5 10 0
21.09.2017 00:00:00 15,9 12,3 29 16 - - 1017,5 10 0
20.09.2017 23:00:00 15,9 11,8 22 12 - - 1017,8 10 0
20.09.2017 22:00:00 15,9 11,4 25 14 - - 1017,8 10 0
20.09.2017 21:00:00 16,0 11,6 29 16 - - 1017,8 10 0
20.09.2017 20:00:00 16,0 11,6 22 12 - - 1017,7 10 0
20.09.2017 19:00:00 16,0 11,0 22 12 - - 1017,7 10 0
20.09.2017 18:00:00 15,8 10,3 25 14 - - 1017,5 10 30
20.09.2017 17:00:00 15,7 10,0 25 14 - - 1017,6 10 36
20.09.2017 16:00:00 15,7 9,1 29 16 - - 1017,5 10 42
20.09.2017 15:00:00 15,7 11,3 29 16 - - 1017,3 10 54
20.09.2017 14:00:00 15,7 10,3 25 14 - - 1017,3 10 48
20.09.2017 13:00:00 - - - - - - - - -
20.09.2017 12:00:00 15,4 9,6 22 12 - - 1017,0 10 42
20.09.2017 11:00:00 15,4 9,8 22 12 - - 1017,0 10 12
20.09.2017 10:00:00 14,7 10,0 22 12 - - 1016,8 10 0
20.09.2017 09:00:00 15,0 9,8 25 14 - - 1016,6 10 0
20.09.2017 08:00:00 15,0 11,3 29 16 - - 1016,6 10 0
20.09.2017 07:00:00 14,8 9,3 29 16 - - 1016,3 10 0
20.09.2017 06:00:00 14,8 9,1 36 19 50 27 1016,4 10 0
20.09.2017 05:00:00 14,7 9,5 40 21 - - 1016,2 10 0
20.09.2017 04:00:00 14,8 9,7 43 23 58 31 1016,4 10 0
20.09.2017 03:00:00 14,5 9,0 43 23 50 27 1016,4 10 0
20.09.2017 02:00:00 - - - - - - - - -
20.09.2017 01:00:00 13,9 10,6 36 19 50 27 1016,8 10 0
20.09.2017 00:00:00 14,3 10,2 36 19 - - 1016,7 10 0
19.09.2017 23:00:00 14,7 9,2 32 18 - - 1017,0 10 0
19.09.2017 22:00:00 14,2 10,1 36 19 54 29 1017,2 10 0
19.09.2017 21:00:00 14,9 9,4 32 18 - - 1017,1 10 0
19.09.2017 20:00:00 14,9 9,5 32 18 - - 1017,0 10 0
19.09.2017 19:00:00 14,7 10,8 22 12 - - 1017,0 10 0
19.09.2017 18:00:00 14,9 9,5 32 18 47 25 1016,9 10 0
19.09.2017 17:00:00 14,7 11,5 29 16 - - 1017,0 10 0
19.09.2017 16:00:00 13,7 9,8 25 14 - - 1016,8 7 0
19.09.2017 15:00:00 15,3 11,2 25 14 - - 1016,9 10 6
19.09.2017 14:00:00 15,9 10,1 22 12 - - 1016,8 10 48
19.09.2017 13:00:00 15,2 9,8 22 12 - - 1016,8 10 42
19.09.2017 12:00:00 15,4 10,4 18 10 - - 1016,5 10 30
19.09.2017 11:00:00 15,2 10,6 14 8 - - 1016,3 10 24
19.09.2017 10:00:00 15,1 10,7 7 4 - - 1016,0 10 42
19.09.2017 09:00:00 15,0 10,6 18 10 - - 1015,6 10 12
19.09.2017 08:00:00 12,7 10,6 11 6 - - 1015,5 6 0
19.09.2017 07:00:00 14,2 9,3 11 6 - - 1015,1 10 0
19.09.2017 06:00:00 14,7 9,1 7 4 - - 1015,1 10 0

tt = temperatuur
td = dauwpunt
ff = windsnelheid
fx = windstoten
ppp = luchtdruk
vv = zicht
sd = Zonneschijnduur

Weerstations in de omgeving